NOAA NWS Hourly Roundups by Site

Regional Weather Roundup for Seattle, WA

To Select Another Site Choose from List

Select Site:  

177
ASUS46 KSEW 261910
RWRWA

WASHINGTON REGIONAL WEATHER ROUNDUP
NATIONAL WEATHER SERVICE SEATTLE WA
1200 PM PDT SUN MAY 26 2019

NOTE:"FAIR" INDICATES FEW OR NO CLOUDS BELOW 12,000 FEET WITH NO
SIGNIFICANT WEATHER AND/OR OBSTRUCTIONS TO VISIBILITY.

WAZ507-509-555>559-262000-
SEATTLE, TACOMA, EVERETT, AND VICINITY

CITY           SKY/WX    TMP DP  RH WIND       PRES   REMARKS
EVERETT        CLOUDY    57  51  80 CALM      29.89F
BOEING FIELD   CLOUDY    60  50  69 VRB5      29.88F
RENTON         CLOUDY    60  52  74 N9        29.88F
SEATAC AIRPORT CLOUDY    61  50  67 NE12      29.88F
JBLM-MCCHORD   CLOUDY    61  58  91 NE8       29.89S
PUYALLUP       CLOUDY    61  54  77 VRB3      29.88F
BREMERTON      CLOUDY    57  52  83 E6        29.89F
JBLM-FT LEWIS  CLOUDY    58  58  99 NW5       29.88F
TACOMA NARROWS CLOUDY    57  51  80 VRB3      29.89F
$$

WAZ001-503-506-510-514-515-262000-
NORTH INTERIOR

CITY           SKY/WX    TMP DP  RH WIND       PRES   REMARKS
BELLINGHAM     PTSUNNY   62  52  69 S9        29.88S
FRIDAY HARBOR  MOSUNNY   67  51  56 VRB6      29.89S
EASTSOUND      MOSUNNY   61  52  72 VRB6      29.87F
PORT ANGELES   MOSUNNY   64  53  67 E5        29.89F
EDIZ HOOK      FAIR      53  50  90 E3        29.89S
PORT TOWNSEND  FAIR      63  50  63 VRB7      29.88S
NAS WHIDBEY    CLOUDY    62  50  64 W6        29.92F
ARLINGTON      CLOUDY    57  52  83 N5        29.90F
BURLINGTON     CLOUDY    61  55  82 CALM      29.89F
$$

WAZ020-022-039-040-504-511-512-262000-
SOUTHWEST INTERIOR

CITY           SKY/WX    TMP DP  RH WIND       PRES   REMARKS
SHELTON        CLOUDY    59  49  69 NE5       29.87S
OLYMPIA        CLOUDY    58  50  75 N6        29.89F
CHEHALIS       CLOUDY    61  54  77 VRB5      29.88S
KELSO          CLOUDY    61  52  72 N9        29.86R
VANCOUVER      CLOUDY    62  50  64 W8        29.83S
SCAPPOOSE, OR  PTSUNNY   64  51  62 NW12      29.82S
PORTLAND, OR   PTSUNNY   63  50  62 CALM      29.83F
$$

WAZ021-516-517-262000-
WASHINGTON COAST

CITY           SKY/WX    TMP DP  RH WIND       PRES   REMARKS
FORKS          SUNNY     65  52  62 SW12      29.84F
HOQUIAM        MOSUNNY   62  52  69 NE7       29.87S
ASTORIA, OR    SUNNY     64  51  62 NW7       29.85S
$$

WAZ019-023-024-040-567>569-262000-
CASCADE MOUNTAINS AND COLUMBIA GORGE

CITY           SKY/WX    TMP DP  RH WIND       PRES   REMARKS
STAMPEDE PASS  CLOUDY    50  45  83 CALM      29.90R
TROUTDALE, OR  MOSUNNY   61  51  70 VRB3      29.83F
HOOD RIVER, OR CLOUDY    63  54  72 CALM      29.81F
THE DALLES, OR CLOUDY    64  50  60 E5        29.81R
$$

WAZ026-027-041>044-520-521-262000-
EAST SLOPES

CITY           SKY/WX    TMP DP  RH WIND       PRES   REMARKS
OMAK           CLOUDY    58  52  80 N14       29.93S
WENATCHEE      CLOUDY    55  50  83 W7        29.88R
ELLENSBURG     CLOUDY    57  51  80 S7        29.86R
YAKIMA         CLOUDY    59  51  75 N14G21    29.85R
SUNNYSIDE ARPT PTCLDY    67  52  57 NW6       29.81S
YAKIMA TC      CLOUDY    57  51  79 N12       29.83S
$$

WAZ028-034-035-262000-
COLUMBIA BASIN

CITY           SKY/WX    TMP DP  RH WIND       PRES   REMARKS
EPHRATA        CLOUDY    62  51  67 N17       29.84S
MOSES LAKE     CLOUDY    71  50  47 NE10      29.82S
PASCO          PTSUNNY   72  53  51 NW8       29.79F
RICHLAND ARPT  PTCLDY    71  53  51 N6        29.80S
HERMISTON, OR  MOSUNNY   71  52  50 VRB5      29.78F
$$

WAZ036>038-262000-
NORTHEAST WASHINGTON

CITY           SKY/WX    TMP DP  RH WIND       PRES   REMARKS
SPOKANE GEIGER CLOUDY    61  42  49 NE16      29.87R
SPOKANE FELTS  PTSUNNY   64  43  46 NE12G20   29.87R
FAIRCHILD AFB  PTSUNNY   64  46  50 NE18G28   29.87R
COEURDALENE,ID PTSUNNY   61  43  51 NE17G26   29.89S
DEER PARK      CLOUDY    65  42  43 NE21G29   29.89F
$$

WAZ029>033-262000-
SOUTHEAST WASHINGTON

CITY           SKY/WX    TMP DP  RH WIND       PRES   REMARKS
PULLMAN        PTSUNNY   65  54  67 N9        29.82F
LEWISTON, ID   MOSUNNY   66  53  63 VRB6      29.78F
WALLA WALLA    PTSUNNY   66  51  58 NE5       29.79S
PENDLETON, OR  MOSUNNY   66  54  65 NW7       29.78S
$$



 

View Past Reports for Seattle, WA.

Products Courtesy of NOAA-NWS
NWS Information Parsing Script by Ken True at Saratoga Weather - Script by SE Lincoln Weather.